FW6644 Weather Reports


Display with metric or nautical units.
time (UTC)temp
F
wind
direction
speed
MPH
gust
MPH
rain 1hr
in
rain 24hr
in
rain mn
in
humidity
%
barometer
mb
20260904003013 101 136 2.0 9.0 0.00 0.00 0.00 29 1004.2
20260904001512 102 210 5.0 9.0 0.00 0.00 0.00 28 1004.1
20260904000009 102 256 0.0 5.0 0.00 0.00 0.00 28 1004.3
20260903234510 103 98 3.0 7.0 0.00 0.00 0.00 28 1004.4
20260903233008 101 86 2.0 6.0 0.00 0.00 0.00 29 1004.5
20260903231505 102 245 3.0 11.0 0.00 0.00 0.00 28 1004.7
20260903230003 102 163 1.0 5.0 0.00 0.00 0.00 28 1004.8
20260903224501 101 297 2.0 5.0 0.00 0.00 0.00 29 1004.9
20260903223113 101 179 4.0 11.0 0.00 0.00 0.00 29 1005.2
20260903221559 102 136 3.0 8.0 0.00 0.00 0.00 28 1005.3
20260903220106 101 9 1.0 6.0 0.00 0.00 0.00 29 1005.6
20260903214555 101 129 1.0 8.0 0.00 0.00 0.00 29 1005.9
20260903213053 101 201 2.0 9.0 0.00 0.00 0.00 29 1006.1
20260903211549 101 113 2.0 10.0 0.00 0.00 0.00 29 1006.3
20260903210046 101 187 3.0 12.0 0.00 0.00 0.00 29 1006.6
20260903204550 101 148 3.0 9.0 0.00 0.00 0.00 28 1006.8
20260903203041 100 122 4.0 11.0 0.00 0.00 0.00 29 1007.1
20260903201540 101 163 3.0 11.0 0.00 0.00 0.00 28 1007.4
20260903200044 100 176 4.0 11.0 0.00 0.00 0.00 29 1007.6
20260903194545 100 180 5.0 10.0 0.00 0.00 0.00 30 1007.7
20260903193033 99 249 5.0 11.0 0.00 0.00 0.00 30 1007.8
20260903191535 100 264 3.0 9.0 0.00 0.00 0.00 30 1008.1
20260903190030 99 194 3.0 8.0 0.00 0.00 0.00 32 1008.3
20260903184528 98 352 6.0 11.0 0.00 0.00 0.00 34 1008.7
20260903183038 98 232 2.0 11.0 0.00 0.00 0.00 33 1008.9
20260903181527 97 338 2.0 7.0 0.00 0.00 0.00 32 1009.1
20260903180033 97 210 0.0 7.0 0.00 0.00 0.00 37 1009.3
20260903174524 96 88 2.0 6.0 0.00 0.00 0.00 38 1009.5
20260903173017 95 169 3.0 10.0 0.00 0.00 0.00 38 1009.8
20260903171525 95 191 2.0 9.0 0.00 0.00 0.00 39 1009.6
20260903170016 95 153 2.0 9.0 0.00 0.00 0.00 39 1009.6
20260903164514 94 98 3.0 11.0 0.00 0.00 0.00 40 1009.6
20260903163017 93 127 3.0 8.0 0.00 0.00 0.00 42 1009.6
20260903161513 93 326 1.0 6.0 0.00 0.00 0.00 43 1009.7
20260903160006 93 108 1.0 4.0 0.00 0.00 0.00 43 1009.7
20260903154508 92 204 1.0 6.0 0.00 0.00 0.00 46 1009.8
20260903153004 91 232 3.0 10.0 0.00 0.00 0.00 48 1009.9
20260903151604 89 155 3.0 8.0 0.00 0.00 0.00 50 1009.8
20260903150057 89 47 2.0 6.0 0.00 0.00 0.00 52 1009.9
20260903144558 88 141 2.0 8.0 0.00 0.00 0.00 54 1010.0
20260903143052 88 205 0.0 5.0 0.00 0.00 0.00 55 1009.9
20260903141551 86 176 1.0 3.0 0.00 0.00 0.00 57 1009.9
20260903140050 84 163 1.0 4.0 0.00 0.00 0.00 60 1009.6
20260903134601 83 107 0.0 2.0 0.00 0.00 0.00 62 1009.4
20260903133050 82 121 0.0 1.0 0.00 0.00 0.00 63 1009.2
20260903131543 82 110 0.0 1.0 0.00 0.00 0.00 62 1009.0
20260903130041 82 200 0.0 2.0 0.00 0.00 0.00 61 1008.9
20260903124554 82 108 0.0 2.0 0.00 0.00 0.00 60 1008.8
20260903123034 83 103 0.0 3.0 0.00 0.00 0.00 58 1008.7
20260903121543 83 117 0.0 3.0 0.00 0.00 0.00 55 1008.5
20260903120030 83 111 0.0 2.0 0.00 0.00 0.00 51 1008.4
20260903114630 83 35 0.0 1.0 0.00 0.00 0.00 51 1008.3
20260903113030 83 47 0.0 1.0 0.00 0.00 0.00 51 1008.1
20260903111525 83 117 0.0 1.0 0.00 0.00 0.00 50 1008.1
20260903110025 83 146 0.0 1.0 0.00 0.00 0.00 50 1008.0
20260903104527 84 129 0.0 3.0 0.00 0.00 0.00 50 1008.0
20260903103022 84 124 1.0 3.0 0.00 0.00 0.00 52 1007.9
20260903101529 85 120 0.0 2.0 0.00 0.00 0.00 53 1007.9
20260903100024 85 91 0.0 2.0 0.00 0.00 0.00 53 1008.0
20260903094517 86 58 0.0 2.0 0.00 0.00 0.00 48 1008.0
20260903093014 86 243 0.0 2.0 0.00 0.00 0.00 46 1007.9
20260903091514 86 218 0.0 1.0 0.00 0.00 0.00 46 1007.9
20260903090011 86 243 0.0 2.0 0.00 0.00 0.00 49 1007.7
20260903084513 86 163 0.0 2.0 0.00 0.00 0.00 49 1007.7
20260903083009 87 159 0.0 2.0 0.00 0.00 0.00 48 1007.7
20260903081506 87 153 0.0 3.0 0.00 0.00 0.00 48 1007.8
20260903080001 88 193 0.0 2.0 0.00 0.00 0.00 47 1007.8
20260903074600 89 219 0.0 4.0 0.00 0.00 0.00 46 1007.9
20260903073113 89 219 0.0 4.0 0.00 0.00 0.00 45 1007.7
20260903071558 90 249 1.0 5.0 0.00 0.00 0.00 44 1007.8
20260903070051 90 210 1.0 5.0 0.00 0.00 0.00 43 1007.9
20260903064555 91 256 1.0 6.0 0.00 0.00 0.00 39 1007.8
20260903063055 92 232 0.0 2.0 0.00 0.00 0.00 31 1007.6
20260903061550 92 250 0.0 4.0 0.00 0.00 0.00 32 1007.5
20260903060049 92 292 0.0 1.0 0.00 0.00 0.00 39 1007.5
20260903054549 93 221 0.0 2.0 0.00 0.00 0.00 38 1007.5
20260903053049 93 221 0.0 3.0 0.00 0.00 0.00 37 1007.5
20260903051547 93 238 1.0 3.0 0.00 0.00 0.00 37 1007.6
20260903050047 94 240 0.0 3.0 0.00 0.00 0.00 36 1007.5
20260903044547 95 228 0.0 3.0 0.00 0.00 0.00 35 1007.5
20260903043100 95 212 1.0 3.0 0.00 0.00 0.00 34 1007.5
20260903041545 95 235 0.0 2.0 0.00 0.00 0.00 34 1007.5
20260903040046 95 286 1.0 4.0 0.00 0.00 0.00 34 1007.3
20260903034544 95 302 1.0 4.0 0.00 0.00 0.00 33 1007.1
20260903033044 96 262 0.0 5.0 0.00 0.00 0.00 32 1007.0
20260903031548 96 238 0.0 5.0 0.00 0.00 0.00 32 1006.9
20260903030046 96 287 1.0 5.0 0.00 0.00 0.00 32 1006.7
20260903024541 97 291 1.0 5.0 0.00 0.00 0.00 31 1006.6
20260903023041 97 253 2.0 5.0 0.00 0.00 0.00 31 1006.5
20260903021540 97 256 1.0 7.0 0.00 0.00 0.00 31 1006.4
20260903020048 98 198 1.0 5.0 0.00 0.00 0.00 31 1006.3
20260903014539 98 215 2.0 7.0 0.00 0.00 0.00 30 1006.2
20260903013047 99 264 2.0 6.0 0.00 0.00 0.00 29 1006.0
20260903011538 99 243 2.0 7.0 0.00 0.00 0.00 28 1006.1
20260903010039 101 256 5.0 9.0 0.00 0.00 0.00 27 1006.1
20260903004537 101 179 2.0 5.0 0.00 0.00 0.00 27 1006.0